When you browse on this site, cookies collect data to enhance your experience and personalize the content and advertising you see.
Visit our Privacy Policy to learn more. By continuing to use the site, you agree to this use of cookies and data.
  • In United Kingdom
  • List of Countries
  • For 7 days
  • Water Temperature
  • Satellite Maps
  • Weather Map
  • Weather Widgets
  • user-avatar
    Login

    Hourly Weather Tamazulapan del Progreso

    Today, 16 June, Sunday

    Time Temperature Precipitation Wind Pressure Humidity
    00:00 +16°C° 0.2 mm 1 mps 598 mmHg 89%
    01:00 +18°C° 0.2 mm 1 mps 598 mmHg 89%
    02:00 +18°C° 0.2 mm 1 mps 598 mmHg 89%
    03:00 +18°C° 0.1 mm 1 mps 597 mmHg 89%
    04:00 +18°C° 0.1 mm 1 mps 597 mmHg 89%
    05:00 +16°C° 0.1 mm 1 mps 597 mmHg 89%
    06:00 +19°C° 0.2 mm 1 mps 598 mmHg 82%
    07:00 +20°C° 0.2 mm 1 mps 599 mmHg 75%
    08:00 +22°C° 0.2 mm 1 mps 600 mmHg 69%
    09:00 +23°C° 1.1 mm 1 mps 600 mmHg 65%
    10:00 +24°C° 1.1 mm 1 mps 600 mmHg 62%
    11:00 +25°C° 1.1 mm 1 mps 600 mmHg 59%
    12:00 +25°C° 2.8 mm 1 mps 600 mmHg 61%
    13:00 +24°C° 2.8 mm 1 mps 599 mmHg 63%
    14:00 +24°C° 2.8 mm 1 mps 598 mmHg 65%
    15:00 +23°C° 3.6 mm 1 mps 598 mmHg 72%
    16:00 +20°C° 3.6 mm 2 mps 597 mmHg 80%
    17:00 +19°C° 3.6 mm 2 mps 597 mmHg 87%
    18:00 +19°C° 2.3 mm 2 mps 597 mmHg 88%
    19:00 +18°C° 2.3 mm 2 mps 598 mmHg 88%
    20:00 +18°C° 2.3 mm 2 mps 598 mmHg 89%
    21:00 +19°C° 2.7 mm 1 mps 598 mmHg 90%
    22:00 +18°C° 2.7 mm 1 mps 598 mmHg 91%
    23:00 +16°C° 2.7 mm 0 mps 598 mmHg 92%

    Tomorrow, 17 June, Monday

    Time Temperature Precipitation Wind Pressure Humidity
    00:00 +18°C° 1 mm 1 mps 598 mmHg 92%
    01:00 +18°C° 1 mm 1 mps 598 mmHg 92%
    02:00 +18°C° 1 mm 1 mps 597 mmHg 93%
    03:00 +16°C° 0 mm 1 mps 597 mmHg 92%
    04:00 +16°C° 0 mm 1 mps 597 mmHg 92%
    05:00 +15°C° 0 mm 0 mps 597 mmHg 92%
    06:00 +17°C° 0 mm 0 mps 598 mmHg 84%
    07:00 +18°C° 0 mm 0 mps 599 mmHg 75%
    08:00 +20°C° 0 mm 0 mps 600 mmHg 67%
    09:00 +21°C° 0.4 mm 0 mps 601 mmHg 64%
    10:00 +24°C° 0.4 mm 1 mps 601 mmHg 61%
    11:00 +25°C° 0.4 mm 1 mps 601 mmHg 58%
    12:00 +25°C° 2.2 mm 1 mps 600 mmHg 60%
    13:00 +24°C° 2.2 mm 1 mps 600 mmHg 62%
    14:00 +24°C° 2.2 mm 1 mps 599 mmHg 64%
    15:00 +23°C° 2.5 mm 1 mps 599 mmHg 68%
    16:00 +22°C° 2.5 mm 1 mps 599 mmHg 73%
    17:00 +21°C° 2.5 mm 1 mps 598 mmHg 78%
    18:00 +21°C° 0.8 mm 1 mps 599 mmHg 79%
    19:00 +20°C° 0.8 mm 1 mps 599 mmHg 81%
    20:00 +20°C° 0.8 mm 1 mps 599 mmHg 83%
    21:00 +20°C° 0.1 mm 1 mps 599 mmHg 84%
    22:00 +19°C° 0.1 mm 1 mps 599 mmHg 84%
    23:00 +17°C° 0.1 mm 0 mps 599 mmHg 85%

    Day after tomorrow, 18 June, Tuesday

    Time Temperature Precipitation Wind Pressure Humidity
    00:00 +16°C° 0 mm 0 mps 599 mmHg 85%
    01:00 +16°C° 0 mm 0 mps 598 mmHg 86%
    02:00 +16°C° 0 mm 0 mps 598 mmHg 87%
    03:00 +15°C° 0 mm 0 mps 598 mmHg 87%
    04:00 +15°C° 0 mm 0 mps 598 mmHg 87%
    05:00 +15°C° 0 mm 0 mps 598 mmHg 87%
    06:00 +17°C° 0 mm 0 mps 599 mmHg 80%
    07:00 +19°C° 0 mm 0 mps 600 mmHg 73%
    08:00 +21°C° 0 mm 0 mps 601 mmHg 66%
    09:00 +24°C° 0.7 mm 1 mps 601 mmHg 61%
    10:00 +25°C° 0.7 mm 1 mps 601 mmHg 57%
    11:00 +26°C° 0.7 mm 1 mps 601 mmHg 52%
    12:00 +26°C° 1.7 mm 1 mps 601 mmHg 54%
    13:00 +26°C° 1.7 mm 1 mps 600 mmHg 56%
    14:00 +25°C° 1.7 mm 1 mps 600 mmHg 57%
    15:00 +25°C° 1.9 mm 1 mps 600 mmHg 61%
    16:00 +24°C° 1.9 mm 1 mps 599 mmHg 65%
    17:00 +23°C° 1.9 mm 1 mps 599 mmHg 68%
    18:00 +22°C° 1.5 mm 1 mps 599 mmHg 74%
    19:00 +21°C° 1.5 mm 1 mps 599 mmHg 79%
    20:00 +20°C° 1.5 mm 1 mps 599 mmHg 85%
    21:00 +20°C° 0.2 mm 1 mps 599 mmHg 86%
    22:00 +19°C° 0.2 mm 1 mps 599 mmHg 87%
    23:00 +19°C° 0.2 mm 1 mps 599 mmHg 88%

    19 June, Wednesday

    Time Temperature Precipitation Wind Pressure Humidity
    00:00 +17°C° 0.1 mm 0 mps 599 mmHg 88%
    01:00 +16°C° 0.1 mm 0 mps 598 mmHg 88%
    02:00 +16°C° 0.1 mm 0 mps 598 mmHg 89%
    03:00 +16°C° 0 mm 0 mps 598 mmHg 89%
    04:00 +15°C° 0 mm 0 mps 598 mmHg 88%
    05:00 +15°C° 0 mm 0 mps 598 mmHg 88%
    06:00 +17°C° 0 mm 0 mps 598 mmHg 80%
    07:00 +21°C° 0 mm 1 mps 599 mmHg 72%
    08:00 +22°C° 0 mm 1 mps 600 mmHg 65%
    09:00 +24°C° 0 mm 1 mps 601 mmHg 58%
    10:00 +25°C° 0 mm 1 mps 601 mmHg 52%
    11:00 +27°C° 0 mm 2 mps 601 mmHg 46%
    12:00 +27°C° 0 mm 2 mps 601 mmHg 45%
    13:00 +27°C° 0 mm 3 mps 600 mmHg 44%
    14:00 +27°C° 0 mm 3 mps 600 mmHg 43%
    15:00 +26°C° 0.2 mm 3 mps 599 mmHg 48%
    16:00 +25°C° 0.2 mm 2 mps 599 mmHg 54%
    17:00 +25°C° 0.2 mm 2 mps 599 mmHg 59%
    18:00 +23°C° 0.3 mm 2 mps 599 mmHg 66%
    19:00 +22°C° 0.3 mm 1 mps 599 mmHg 73%
    20:00 +20°C° 0.3 mm 1 mps 598 mmHg 80%
    21:00 +20°C° 0.2 mm 1 mps 598 mmHg 81%
    22:00 +19°C° 0.2 mm 1 mps 598 mmHg 83%
    23:00 +19°C° 0.2 mm 1 mps 598 mmHg 85%

    20 June, Thursday

    Time Temperature Precipitation Wind Pressure Humidity
    00:00 +18°C° 0 mm 1 mps 598 mmHg 85%
    01:00 +18°C° 0 mm 1 mps 598 mmHg 84%
    02:00 +15°C° 0 mm 0 mps 597 mmHg 84%
    03:00 +15°C° 0 mm 0 mps 597 mmHg 83%
    04:00 +15°C° 0 mm 0 mps 597 mmHg 82%
    05:00 +15°C° 0 mm 0 mps 597 mmHg 82%
    06:00 +17°C° 0 mm 0 mps 598 mmHg 74%
    07:00 +19°C° 0 mm 0 mps 599 mmHg 67%
    08:00 +21°C° 0 mm 0 mps 600 mmHg 59%
    09:00 +25°C° 0 mm 1 mps 601 mmHg 53%
    10:00 +26°C° 0 mm 1 mps 601 mmHg 47%
    11:00 +27°C° 0 mm 1 mps 601 mmHg 42%
    12:00 +28°C° 0.1 mm 2 mps 601 mmHg 41%
    13:00 +28°C° 0.1 mm 2 mps 600 mmHg 40%
    14:00 +28°C° 0.1 mm 2 mps 600 mmHg 40%
    15:00 +27°C° 0.4 mm 2 mps 600 mmHg 47%
    16:00 +26°C° 0.4 mm 2 mps 599 mmHg 54%
    17:00 +25°C° 0.4 mm 1 mps 599 mmHg 61%
    18:00 +23°C° 0.5 mm 1 mps 599 mmHg 66%
    19:00 +22°C° 0.5 mm 1 mps 599 mmHg 72%
    20:00 +21°C° 0.5 mm 1 mps 599 mmHg 77%
    21:00 +20°C° 0.2 mm 1 mps 599 mmHg 79%
    22:00 +20°C° 0.2 mm 1 mps 599 mmHg 81%
    23:00 +20°C° 0.2 mm 1 mps 599 mmHg 83%

    21 June, Friday

    Time Temperature Precipitation Wind Pressure Humidity
    00:00 +19°C° 0.1 mm 1 mps 598 mmHg 84%
    01:00 +19°C° 0.1 mm 1 mps 598 mmHg 85%
    02:00 +16°C° 0.1 mm 0 mps 597 mmHg 86%
    03:00 +16°C° 0 mm 0 mps 597 mmHg 86%
    04:00 +16°C° 0 mm 0 mps 597 mmHg 86%
    05:00 +15°C° 0 mm 0 mps 597 mmHg 86%
    06:00 +17°C° 0 mm 0 mps 599 mmHg 77%
    07:00 +19°C° 0 mm 0 mps 600 mmHg 69%
    08:00 +21°C° 0 mm 0 mps 601 mmHg 60%
    09:00 +24°C° 0 mm 1 mps 601 mmHg 54%
    10:00 +26°C° 0 mm 1 mps 601 mmHg 48%
    11:00 +27°C° 0 mm 2 mps 602 mmHg 42%
    12:00 +27°C° 0 mm 2 mps 601 mmHg 42%
    13:00 +28°C° 0 mm 3 mps 601 mmHg 41%
    14:00 +28°C° 0 mm 4 mps 600 mmHg 41%
    15:00 +27°C° 0.4 mm 3 mps 600 mmHg 48%
    16:00 +26°C° 0.4 mm 3 mps 599 mmHg 55%
    17:00 +25°C° 0.4 mm 2 mps 599 mmHg 61%
    18:00 +23°C° 0.1 mm 2 mps 599 mmHg 68%
    19:00 +22°C° 0.1 mm 1 mps 599 mmHg 75%
    20:00 +21°C° 0.1 mm 1 mps 599 mmHg 82%
    21:00 +20°C° 0 mm 1 mps 599 mmHg 85%
    22:00 +19°C° 0 mm 1 mps 599 mmHg 87%
    23:00 +19°C° 0 mm 1 mps 599 mmHg 90%
    Show more